Notices

What's New in latest Release from April 7th, 2021:

- Updated Glossary, including Speed of Maximum Gust, and Total Hourly Precipitation

- Updated national and regional climate services offices contacts and prices information

- Addition of station inventory lists for 1981-2010, 1971-2000, and 1961-1990 Normals.

If you haven't already, please take our survey and provide feedback about our website: https://eccc.sondage-survey.ca/f/LanguageSelection.aspx?s=442ca660-fcf1-47c0-95a9-59707d6fd709

Hourly Data Report for April 26, 2004

TORONTO CITY
ONTARIO

43°40'00.000" N
79°24'00.000" W
112.50 m
6158355
71508
XTO

Download Data

Hourly Data (April 2004)
Hourly Data Report for April 26, 2004
TIME
LST
Temp Definition
°C
Dew Point Definition
°C
Rel Hum Definition
%
Precip. Amount Definition
mm

Wind Dir Definition
10's deg

Wind Spd Definition
km/h
Visibility Definition
km
Stn Press Definition
kPa
Hmdx Definition


Wind Chill Definition


Weather Definition


00:00 8.3 8.3 100   LegendMM LegendMM LegendMM 99.50     LegendNANA
01:00 8.4 8.4 100   LegendMM LegendMM LegendMM 99.49     LegendNANA
02:00 8.2 8.2 100   LegendMM LegendMM LegendMM 99.51     LegendNANA
03:00 7.4 7.4 100   LegendMM LegendMM LegendMM 99.50     LegendNANA
04:00 6.5 6.5 100   LegendMM LegendMM LegendMM 99.52     LegendNANA
05:00 7.3 7.3 100   LegendMM LegendMM LegendMM 99.62     LegendNANA
06:00 8.8 7.0 88   LegendMM LegendMM LegendMM 99.74     LegendNANA
07:00 8.5 5.6 82   LegendMM LegendMM LegendMM 99.79     LegendNANA
08:00 8.4 4.7 78   LegendMM LegendMM LegendMM 99.86     LegendNANA
09:00 8.5 4.5 76   LegendMM LegendMM LegendMM 99.90     LegendNANA
10:00 9.3 4.2 70   LegendMM LegendMM LegendMM 99.94     LegendNANA
11:00 11.0 4.3 63   LegendMM LegendMM LegendMM 99.92     LegendNANA
12:00 12.2 5.4 63   LegendMM LegendMM LegendMM 99.84     LegendNANA
13:00 11.9 5.5 65   LegendMM LegendMM LegendMM 99.81     LegendNANA
14:00 12.5 4.5 58   LegendMM LegendMM LegendMM 99.72     LegendNANA
15:00 13.0 4.7 57   LegendMM LegendMM LegendMM 99.64     LegendNANA
16:00 13.0 6.4 64   LegendMM LegendMM LegendMM 99.58     LegendNANA
17:00 11.9 6.3 69   LegendMM LegendMM LegendMM 99.53     LegendNANA
18:00 11.3 6.0 70   LegendMM LegendMM LegendMM 99.56     LegendNANA
19:00 12.2 3.9 57   LegendMM LegendMM LegendMM 99.51     LegendNANA
20:00 10.5 5.1 69   LegendMM LegendMM LegendMM 99.43     LegendNANA
21:00 9.7 5.0 72   LegendMM LegendMM LegendMM 99.45     LegendNANA
22:00 8.4 5.9 84   LegendMM LegendMM LegendMM 99.53     LegendNANA
23:00 7.9 6.5 91   LegendMM LegendMM LegendMM 99.38     LegendNANA

Notes on Data Quality.

Legend

  • E = Estimated
  • M = Missing
  • NA = Not Available*
  • [empty] = Indicates an unobserved value
Date modified: